Stations météo

réclame
Mon MeteoGroup
Palma De Mallorca/Son San Ju, Espagne (8306): Température de l'air & dewpoint: 18.06.2018 01:00:00 - 24.06.2018 01:00:00 (CEST)Palma De Mallorca/Son San Ju, Espagne (8306): Vitesse du vent: 18.06.2018 01:00:00 - 24.06.2018 01:00:00 (CEST)Palma De Mallorca/Son San Ju, Espagne (8306): Direction du vent: 18.06.2018 01:00:00 - 24.06.2018 01:00:00 (CEST)Palma De Mallorca/Son San Ju, Espagne (8306): reduced air pressure: 18.06.2018 01:00:00 - 24.06.2018 01:00:00 (CEST)Palma De Mallorca/Son San Ju, Espagne (8306): visibility: 18.06.2018 01:00:00 - 24.06.2018 01:00:00 (CEST)
Date & Time tt [°C] td [°C] ff [km/h] ff [knt] dd ppp [hPa] vv [km]
24.06.2018 01:00:00 20,6 14,4 4 2 - 1018,3 10
24.06.2018 00:00:00 21,8 13,9 8 4 NE 1018,4 10
23.06.2018 23:00:00 23,1 13,6 8 4 NE 1018,2 10
23.06.2018 22:00:00 23,1 16,6 8 4 N 1017,6 10
23.06.2018 21:00:00 24,8 16,5 8 4 WSW 1017,4 10
23.06.2018 20:00:00 26,1 16,4 16 9 SW 1017,4 10
23.06.2018 19:00:00 27,1 16,5 16 9 WSW 1017,0 10
23.06.2018 18:00:00 28,0 15,1 18 10 SW 1017,3 10
23.06.2018 17:00:00 27,9 15,5 21 11 SW 1017,6 10
23.06.2018 16:00:00 28,5 17,4 21 11 SW 1017,9 10
23.06.2018 15:00:00 28,2 18,9 21 11 SW 1018,1 10
23.06.2018 14:00:00 28,5 19,2 21 11 SW 1018,5 10
23.06.2018 13:00:00 29,0 16,8 22 12 SW 1018,7 10
23.06.2018 12:00:00 29,2 14,3 26 14 SW 1018,5 10
23.06.2018 11:00:00 30,8 15,2 5 3 W 1017,8 10
23.06.2018 10:00:00 29,1 15,2 5 3 NNE 1017,8 10
23.06.2018 09:00:00 26,1 18,0 4 2 - 1018,1 10
23.06.2018 08:00:00 23,1 17,8 0 0 N 1018,0 10
23.06.2018 07:00:00 20,6 17,2 4 2 - 1017,9 10
23.06.2018 06:00:00 20,0 17,2 2 1 - 1017,8 10
23.06.2018 05:00:00 19,8 17,0 2 1 WNW 1017,6 10
23.06.2018 04:00:00 20,1 17,3 2 1 ENE 1017,5 10
23.06.2018 03:00:00 20,8 17,4 4 2 - 1017,7 10
23.06.2018 02:00:00 21,0 17,4 4 2 NE 1018,2 10
23.06.2018 01:00:00 21,3 17,4 4 2 E 1018,2 10
23.06.2018 00:00:00 22,9 17,8 4 2 ENE 1017,8 10
22.06.2018 23:00:00 23,7 18,6 0 0 N 1017,5 10
22.06.2018 22:00:00 24,4 18,8 2 1 - 1016,7 10
22.06.2018 21:00:00 25,8 19,0 8 4 WSW 1016,6 10
22.06.2018 20:00:00 26,9 18,8 13 7 WSW 1016,4 10
22.06.2018 19:00:00 27,4 17,9 16 9 WSW 1016,4 10
22.06.2018 18:00:00 27,8 18,2 24 13 WSW 1016,6 10
22.06.2018 17:00:00 29,1 14,7 22 12 SW 1016,5 10
22.06.2018 16:00:00 29,6 14,6 21 11 SW 1016,8 10
22.06.2018 15:00:00 29,2 16,5 22 12 SW 1016,9 10
22.06.2018 14:00:00 29,6 16,1 24 13 SW 1017,1 10
22.06.2018 13:00:00 28,7 16,4 22 12 SW 1017,0 10
22.06.2018 12:00:00 31,4 15,9 9 5 W 1016,8 10
22.06.2018 11:00:00 30,3 14,8 5 3 NNE 1016,8 10
22.06.2018 10:00:00 27,4 15,7 4 2 SW 1017,1 10
22.06.2018 09:00:00 25,0 16,3 2 1 - 1017,2 10
22.06.2018 08:00:00 21,2 16,0 0 0 N 1017,1 10
22.06.2018 07:00:00 18,1 15,7 4 2 - 1017,2 10
22.06.2018 06:00:00 17,3 15,5 2 1 - 1017,0 10
22.06.2018 05:00:00 17,7 15,9 4 2 NNE 1016,9 10
22.06.2018 04:00:00 18,0 16,2 5 3 NE 1017,1 10
22.06.2018 03:00:00 18,9 16,3 0 0 N 1017,3 10
22.06.2018 02:00:00 19,9 17,1 5 3 NE 1017,2 10
22.06.2018 01:00:00 21,1 17,6 4 2 - 1017,6 10
22.06.2018 00:00:00 22,5 19,1 2 1 S 1017,7 10
21.06.2018 23:00:00 23,1 17,8 5 3 SE 1017,6 10
21.06.2018 22:00:00 23,7 19,2 8 4 NW 1017,1 10
21.06.2018 21:00:00 26,5 17,0 9 5 SW 1016,6 10
21.06.2018 20:00:00 27,7 15,6 15 8 SW 1016,5 10
21.06.2018 19:00:00 29,0 14,0 18 10 SW 1016,2 10
21.06.2018 18:00:00 29,5 16,3 18 10 SW 1016,3 10
21.06.2018 17:00:00 29,8 17,1 18 10 SW 1016,6 10
21.06.2018 16:00:00 29,2 17,3 21 11 SW 1016,8 10
21.06.2018 15:00:00 28,3 18,3 21 11 SW 1017,2 10
21.06.2018 14:00:00 28,3 18,4 24 13 SW 1017,4 35
21.06.2018 13:00:00 28,0 17,5 22 12 SW 1017,7 10
21.06.2018 12:00:00 28,4 17,4 22 12 SW 1017,9 10
21.06.2018 11:00:00 29,9 13,3 8 4 NE 1017,5 10
21.06.2018 10:00:00 28,2 15,3 5 3 ENE 1017,7 10
21.06.2018 09:00:00 25,2 16,6 9 5 NE 1017,8 10
21.06.2018 08:00:00 21,3 16,0 5 3 ENE 1017,6 10
21.06.2018 07:00:00 18,2 15,6 4 2 E 1017,6 10
21.06.2018 06:00:00 17,1 14,9 4 2 - 1017,7 10
21.06.2018 05:00:00 17,7 15,1 2 1 - 1017,7 10
21.06.2018 04:00:00 18,3 15,9 5 3 NNE 1018,0 10
21.06.2018 03:00:00 18,5 15,7 4 2 - 1018,3 10
21.06.2018 02:00:00 19,0 15,9 5 3 NE 1018,4 10
21.06.2018 01:00:00 19,8 16,5 5 3 N 1018,7 10
21.06.2018 00:00:00 20,7 16,7 4 2 ENE 1018,8 10
20.06.2018 23:00:00 21,8 17,8 2 1 - 1018,9 10
20.06.2018 22:00:00 23,5 18,2 4 2 - 1018,5 10
20.06.2018 21:00:00 25,1 17,0 5 3 SW 1018,1 10
20.06.2018 20:00:00 26,3 16,7 13 7 SW 1018,0 30
20.06.2018 19:00:00 27,5 15,4 13 7 SW 1017,8 10
20.06.2018 18:00:00 27,8 15,0 16 9 SW 1018,0 10
20.06.2018 17:00:00 28,3 14,0 16 9 SW 1018,2 10
20.06.2018 16:00:00 27,9 15,3 21 11 SW 1018,7 10
20.06.2018 15:00:00 27,6 16,0 24 13 SW 1018,8 10
20.06.2018 14:00:00 27,4 17,8 26 14 SW 1019,1 10
20.06.2018 13:00:00 27,6 15,0 21 11 SW 1019,1 10
20.06.2018 12:00:00 29,5 16,0 11 6 WSW 1019,1 10
20.06.2018 11:00:00 29,3 12,9 8 4 E 1019,2 30
20.06.2018 10:00:00 27,1 13,8 8 4 NNE 1019,3 10
20.06.2018 09:00:00 24,4 16,0 5 3 NE 1019,5 10
20.06.2018 08:00:00 20,4 16,7 4 2 - 1019,5 10
20.06.2018 07:00:00 17,5 15,9 4 2 ENE 1019,3 10
20.06.2018 06:00:00 16,3 15,2 8 4 NE 1019,3 10
20.06.2018 05:00:00 16,3 15,0 5 3 NE 1019,1 10
20.06.2018 04:00:00 16,9 15,2 5 3 ENE 1019,2 10
20.06.2018 03:00:00 17,5 15,3 4 2 ENE 1019,5 10
20.06.2018 02:00:00 18,4 15,8 4 2 NNE 1019,7 10
20.06.2018 01:00:00 19,3 15,6 2 1 - 1020,0 10
20.06.2018 00:00:00 20,5 16,5 5 3 ENE 1020,1 10
19.06.2018 23:00:00 22,4 18,2 4 2 - 1020,1 10
19.06.2018 22:00:00 23,6 18,0 11 6 SW 1019,5 10
19.06.2018 21:00:00 24,5 17,0 11 6 SSW 1019,4 10
19.06.2018 20:00:00 26,0 16,1 18 10 SW 1019,3 30
19.06.2018 19:00:00 26,8 15,5 16 9 SW 1019,3 10
19.06.2018 18:00:00 27,3 15,8 22 12 SW 1019,6 10
19.06.2018 17:00:00 28,5 15,4 24 13 SW 1019,9 10
19.06.2018 16:00:00 29,1 14,2 24 13 SW 1020,0 10
19.06.2018 15:00:00 30,2 13,5 21 11 E 1019,8 10
19.06.2018 14:00:00 29,6 13,2 26 14 ENE 1020,3 10
19.06.2018 13:00:00 28,7 12,6 29 16 ENE 1020,7 10
19.06.2018 12:00:00 27,9 12,9 29 16 ENE 1020,8 10
19.06.2018 11:00:00 27,2 13,2 31 17 ENE 1021,0 10
19.06.2018 10:00:00 26,5 14,3 28 15 ENE 1021,0 10
19.06.2018 09:00:00 24,8 15,4 8 4 NE 1021,2 10
19.06.2018 08:00:00 20,8 16,0 0 0 N 1020,9 10
19.06.2018 07:00:00 17,2 14,8 4 2 NE 1020,8 10
19.06.2018 06:00:00 16,7 14,9 4 2 S 1020,5 10
19.06.2018 05:00:00 16,8 15,3 4 2 NE 1020,3 20
19.06.2018 04:00:00 16,9 15,4 4 2 - 1020,3 10
19.06.2018 03:00:00 17,2 15,2 2 1 - 1020,2 10
19.06.2018 02:00:00 17,9 15,9 2 1 NE 1020,3 25
19.06.2018 01:00:00 18,9 16,3 4 2 ENE 1020,6 10
19.06.2018 00:00:00 20,1 17,3 0 0 N 1020,7 10
18.06.2018 23:00:00 20,9 17,7 5 3 E 1020,4 10
18.06.2018 22:00:00 23,0 18,3 4 2 SSE 1019,9 10
18.06.2018 21:00:00 23,8 18,2 11 6 SSW 1019,4 10
18.06.2018 20:00:00 24,3 18,2 16 9 SW 1019,2 10
18.06.2018 19:00:00 24,7 18,3 24 13 SW 1019,0 10
18.06.2018 18:00:00 25,6 18,5 29 16 SW 1019,2 10
18.06.2018 17:00:00 25,8 18,8 29 16 SW 1019,6 10
18.06.2018 16:00:00 26,3 18,8 31 17 SW 1019,9 10
18.06.2018 15:00:00 26,0 18,4 28 15 SW 1020,4 10
18.06.2018 14:00:00 25,7 18,6 24 13 SW 1020,9 10
18.06.2018 13:00:00 25,6 18,5 26 14 WSW 1020,9 10
18.06.2018 12:00:00 25,2 17,9 18 10 SW 1020,8 10
18.06.2018 11:00:00 25,5 17,2 18 10 WSW 1020,7 30
18.06.2018 10:00:00 25,0 16,8 4 2 NNE 1020,7 10
18.06.2018 09:00:00 22,9 17,6 8 4 NNE 1020,7 10
18.06.2018 08:00:00 20,8 16,7 5 3 ENE 1020,8 10
18.06.2018 07:00:00 17,6 15,8 8 4 N 1020,7 10
18.06.2018 06:00:00 17,3 15,8 5 3 NE 1020,7 10
18.06.2018 05:00:00 17,0 15,7 4 2 - 1020,6 10
18.06.2018 04:00:00 17,4 15,7 8 4 ENE 1020,5 10
18.06.2018 03:00:00 17,6 15,9 5 3 NNE 1020,6 10
18.06.2018 02:00:00 18,1 16,1 0 0 N 1020,7 10
18.06.2018 01:00:00 18,8 16,4 5 3 NE 1020,7 10

tt = Température de l'air
td = dewpoint
ff = Vitesse du vent
dd = Direction du vent
ppp = reduced air pressure
vv = visibility

stations d'obs. à proximité